Time,TemperatureF,DewpointF,PressureIn,WindDirection,WindDirectionDegrees,WindSpeedMPH,WindSpeedGustMPH,Humidity,HourlyPrecipIn,Conditions,Clouds,dailyrainin,SoftwareType,DateUTC
2013-04-03 00:09:00,35.2,0.3,29.94,East,92,6.0,10.1,22,0.00,,,-99.99,FreeWX 2.04,2013-04-03 06:09:00,
2013-04-03 00:19:00,34.5,2.3,29.94,East,87,5.0,8.3,25,0.00,,,-99.99,FreeWX 2.04,2013-04-03 06:19:00,
2013-04-03 00:29:00,34.5,6.3,29.94,East,85,5.0,8.3,30,0.00,,,-99.99,FreeWX 2.04,2013-04-03 06:29:00,
2013-04-03 00:39:00,34.5,6.3,29.97,East,86,6.0,8.7,30,0.00,,,-99.99,FreeWX 2.04,2013-04-03 06:39:00,
2013-04-03 00:49:00,34.3,6.8,29.97,East,84,6.0,7.8,31,0.00,,,-99.99,FreeWX 2.04,2013-04-03 06:49:00,
2013-04-03 00:59:00,34.3,6.8,29.97,East,87,6.0,8.7,31,0.00,,,-99.99,FreeWX 2.04,2013-04-03 06:59:00,
2013-04-03 01:09:00,34.3,7.5,29.97,East,87,5.0,7.8,32,0.00,,,-99.99,FreeWX 2.04,2013-04-03 07:09:00,
2013-04-03 01:19:00,34.7,8.6,29.97,East,88,5.0,8.3,33,0.00,,,-99.99,FreeWX 2.04,2013-04-03 07:19:00,
2013-04-03 01:29:00,34.5,9.1,29.97,East,84,6.0,8.7,34,0.00,,,-99.99,FreeWX 2.04,2013-04-03 07:29:00,
2013-04-03 01:39:00,35.4,10.6,29.97,East,91,6.0,9.2,35,0.00,,,-99.99,FreeWX 2.04,2013-04-03 07:39:00,
2013-04-03 01:49:00,35.8,10.2,29.97,ESE,109,6.0,9.6,34,0.00,,,-99.99,FreeWX 2.04,2013-04-03 07:49:00,
2013-04-03 01:59:00,35.6,11.3,29.97,East,96,5.0,10.1,36,0.00,,,-99.99,FreeWX 2.04,2013-04-03 07:59:00,
2013-04-03 02:09:00,36.1,12.4,29.94,East,99,5.0,10.1,37,0.00,,,-99.99,FreeWX 2.04,2013-04-03 08:09:00,
2013-04-03 02:19:00,36.0,13.5,29.94,East,96,6.0,10.5,39,0.00,,,-99.99,FreeWX 2.04,2013-04-03 08:19:00,
2013-04-03 02:29:00,36.9,13.6,29.94,ESE,104,7.0,13.0,38,0.00,,,-99.99,FreeWX 2.04,2013-04-03 08:29:00,
2013-04-03 02:39:00,36.9,13.6,29.94,ESE,108,7.0,11.2,38,0.00,,,-99.99,FreeWX 2.04,2013-04-03 08:39:00,
2013-04-03 02:50:00,37.2,14.5,29.94,ESE,113,6.0,12.1,39,0.00,,,-99.99,FreeWX 2.04,2013-04-03 08:50:00,
2013-04-03 03:00:00,37.6,14.9,29.94,ESE,113,7.0,11.6,39,0.00,,,-99.99,FreeWX 2.04,2013-04-03 09:00:00,
2013-04-03 03:10:00,38.5,14.5,29.94,ESE,106,7.0,11.6,37,0.00,,,-99.99,FreeWX 2.04,2013-04-03 09:10:00,
2013-04-03 03:20:00,38.1,15.4,29.94,ESE,113,8.0,11.6,39,0.00,,,-99.99,FreeWX 2.04,2013-04-03 09:20:00,
2013-04-03 03:30:00,37.6,14.9,29.94,ESE,104,6.0,12.1,39,0.00,,,-99.99,FreeWX 2.04,2013-04-03 09:30:00,
2013-04-03 03:40:00,38.1,15.4,29.94,ESE,116,6.0,11.6,39,0.00,,,-99.99,FreeWX 2.04,2013-04-03 09:40:00,
2013-04-03 03:50:00,38.7,15.3,29.94,ESE,112,6.0,9.6,38,0.00,,,-99.99,FreeWX 2.04,2013-04-03 09:50:00,
2013-04-03 04:00:00,38.3,14.9,29.94,ESE,102,6.0,10.1,38,0.00,,,-99.99,FreeWX 2.04,2013-04-03 10:00:00,
2013-04-03 04:10:00,38.1,15.4,29.94,ESE,106,6.0,11.2,39,0.00,,,-99.99,FreeWX 2.04,2013-04-03 10:10:00,
2013-04-03 04:20:00,38.1,15.4,29.94,ESE,110,6.0,10.1,39,0.00,,,-99.99,FreeWX 2.04,2013-04-03 10:20:00,
2013-04-03 04:30:00,37.6,14.9,29.94,East,101,6.0,9.6,39,0.00,,,-99.99,FreeWX 2.04,2013-04-03 10:30:00,
2013-04-03 04:40:00,36.7,14.7,29.94,East,97,5.0,8.7,40,0.00,,,-99.99,FreeWX 2.04,2013-04-03 10:40:00,
2013-04-03 04:50:00,36.5,14.5,29.94,ESE,103,5.0,7.8,40,0.00,,,-99.99,FreeWX 2.04,2013-04-03 10:50:00,
2013-04-03 05:00:00,36.7,14.7,29.94,East,96,6.0,9.6,40,0.00,,,-99.99,FreeWX 2.04,2013-04-03 11:00:00,
2013-04-03 05:10:00,36.3,14.4,29.94,East,91,5.0,7.8,40,0.00,,,-99.99,FreeWX 2.04,2013-04-03 11:10:00,
2013-04-03 05:20:00,35.8,14.4,29.94,East,95,5.0,8.7,41,0.00,,,-99.99,FreeWX 2.04,2013-04-03 11:20:00,
2013-04-03 05:30:00,35.4,14.0,29.94,East,98,5.0,8.7,41,0.00,,,-99.99,FreeWX 2.04,2013-04-03 11:30:00,
2013-04-03 05:40:00,35.2,14.5,29.97,ESE,104,5.0,8.3,42,0.00,,,-99.99,FreeWX 2.04,2013-04-03 11:40:00,
2013-04-03 05:50:00,34.7,14.5,29.97,East,91,5.0,7.8,43,0.00,,,-99.99,FreeWX 2.04,2013-04-03 11:50:00,
2013-04-03 06:00:00,35.1,14.4,29.97,ESE,102,5.0,7.8,42,0.00,,,-99.99,FreeWX 2.04,2013-04-03 12:00:00,
2013-04-03 06:10:00,34.9,14.2,29.97,ESE,102,5.0,7.8,42,0.00,,,-99.99,FreeWX 2.04,2013-04-03 12:10:00,
2013-04-03 06:51:00,34.7,14.5,29.97,East,98,6.0,9.2,43,0.00,,,-99.99,FreeWX 2.04,2013-04-03 12:51:00,
2013-04-03 07:01:00,35.2,14.5,29.97,ESE,104,5.0,10.1,42,0.00,,,-99.99,FreeWX 2.04,2013-04-03 13:01:00,
2013-04-03 07:11:00,36.0,14.5,29.97,ESE,120,6.0,9.2,41,0.00,,,-99.99,FreeWX 2.04,2013-04-03 13:11:00,
2013-04-03 07:21:00,35.6,14.7,30.00,ESE,115,6.0,8.3,42,0.00,,,-99.99,FreeWX 2.04,2013-04-03 13:21:00,
2013-04-03 07:31:00,36.1,14.7,30.00,ESE,110,6.0,10.1,41,0.00,,,-99.99,FreeWX 2.04,2013-04-03 13:31:00,
2013-04-03 07:41:00,36.5,15.1,30.00,ESE,114,5.0,8.7,41,0.00,,,-99.99,FreeWX 2.04,2013-04-03 13:41:00,
2013-04-03 07:51:00,37.4,15.3,30.00,ESE,104,5.0,8.3,40,0.00,,,-99.99,FreeWX 2.04,2013-04-03 13:51:00,
2013-04-03 08:01:00,37.9,15.3,30.00,ESE,112,6.0,9.2,39,0.00,,,-99.99,FreeWX 2.04,2013-04-03 14:01:00,
2013-04-03 08:11:00,38.3,14.9,30.00,East,100,4.0,6.7,38,0.00,,,-99.99,FreeWX 2.04,2013-04-03 14:11:00,
2013-04-03 08:21:00,38.5,14.5,30.00,East,98,4.0,6.7,37,0.00,,,-99.99,FreeWX 2.04,2013-04-03 14:21:00,
2013-04-03 08:31:00,38.5,13.8,30.00,SE,127,5.0,6.9,36,0.00,,,-99.99,FreeWX 2.04,2013-04-03 14:31:00,
2013-04-03 08:41:00,37.9,14.5,30.00,ESE,117,4.0,8.3,38,0.00,,,-99.99,FreeWX 2.04,2013-04-03 14:41:00,
2013-04-03 08:51:00,40.5,14.4,30.00,ESE,113,4.0,7.4,34,0.00,,,-99.99,FreeWX 2.04,2013-04-03 14:51:00,
2013-04-03 09:02:00,43.3,14.0,30.00,ESE,108,3.0,5.4,30,0.00,,,-99.99,FreeWX 2.04,2013-04-03 15:02:00,
2013-04-03 09:12:00,45.9,14.5,30.00,East,98,1.0,4.5,28,0.00,,,-99.99,FreeWX 2.04,2013-04-03 15:12:00,
2013-04-03 09:22:00,47.5,12.6,30.00,North,-999,0.0,0.0,24,0.00,,,-99.99,FreeWX 2.04,2013-04-03 15:22:00,
2013-04-03 09:32:00,48.4,8.1,30.00,North,-999,0.0,3.6,19,0.00,,,-99.99,FreeWX 2.04,2013-04-03 15:32:00,
2013-04-03 09:42:00,48.7,8.4,30.00,SW,214,1.0,5.4,19,0.00,,,-99.99,FreeWX 2.04,2013-04-03 15:42:00,
2013-04-03 09:52:00,49.8,9.3,30.00,SW,230,2.0,5.8,19,0.00,,,-99.99,FreeWX 2.04,2013-04-03 15:52:00,
2013-04-03 10:02:00,50.4,5.9,30.00,WSW,241,3.0,6.7,16,0.00,,,-99.99,FreeWX 2.04,2013-04-03 16:02:00,
2013-04-03 10:12:00,52.5,10.2,30.00,SSW,209,2.0,6.9,18,0.00,,,-99.99,FreeWX 2.04,2013-04-03 16:12:00,
2013-04-03 10:22:00,52.7,6.4,30.00,SSW,204,3.0,8.3,15,0.00,,,-99.99,FreeWX 2.04,2013-04-03 16:22:00,
2013-04-03 10:32:00,52.2,7.3,30.00,SSW,210,3.0,8.7,16,0.00,,,-99.99,FreeWX 2.04,2013-04-03 16:32:00,
2013-04-03 10:52:00,51.1,6.4,30.00,West,264,6.0,11.2,16,0.00,,,-99.99,FreeWX 2.04,2013-04-03 16:52:00,
2013-04-03 11:02:00,50.2,5.7,30.00,West,275,6.0,11.6,16,0.00,,,-99.99,FreeWX 2.04,2013-04-03 17:02:00,
2013-04-03 11:12:00,51.4,6.8,30.00,West,266,5.0,10.5,16,0.00,,,-99.99,FreeWX 2.04,2013-04-03 17:12:00,
2013-04-03 11:22:00,53.1,6.6,30.00,West,264,6.0,13.0,15,0.00,,,-99.99,FreeWX 2.04,2013-04-03 17:22:00,
2013-04-03 11:32:00,52.7,6.4,30.00,West,270,7.0,13.0,15,0.00,,,-99.99,FreeWX 2.04,2013-04-03 17:32:00,
2013-04-03 11:42:00,51.4,6.8,30.00,West,266,7.0,14.3,16,0.00,,,-99.99,FreeWX 2.04,2013-04-03 17:42:00,
2013-04-03 11:52:00,51.1,6.4,30.00,West,268,7.0,13.4,16,0.00,,,-99.99,FreeWX 2.04,2013-04-03 17:52:00,
2013-04-03 12:02:00,49.8,5.5,30.00,West,273,7.0,13.0,16,0.00,,,-99.99,FreeWX 2.04,2013-04-03 18:02:00,
2013-04-03 12:13:00,51.1,9.1,30.00,WNW,285,5.0,9.2,18,0.00,,,-99.99,FreeWX 2.04,2013-04-03 18:13:00,
2013-04-03 12:23:00,50.5,9.9,30.00,WNW,285,7.0,12.5,19,0.00,,,-99.99,FreeWX 2.04,2013-04-03 18:23:00,
2013-04-03 12:33:00,50.0,9.3,30.00,NW,316,7.0,11.2,19,0.00,,,-99.99,FreeWX 2.04,2013-04-03 18:33:00,
2013-04-03 12:43:00,50.9,9.0,30.00,NW,317,6.0,10.5,18,0.00,,,-99.99,FreeWX 2.04,2013-04-03 18:43:00,
2013-04-03 12:53:00,51.3,6.6,30.00,WNW,287,5.0,8.3,16,0.00,,,-99.99,FreeWX 2.04,2013-04-03 18:53:00,
2013-04-03 13:03:00,52.5,7.7,30.00,WNW,285,5.0,10.1,16,0.00,,,-99.99,FreeWX 2.04,2013-04-03 19:03:00,
2013-04-03 13:13:00,52.7,7.9,30.00,WNW,303,4.0,10.1,16,0.00,,,-99.99,FreeWX 2.04,2013-04-03 19:13:00,
2013-04-03 13:23:00,54.1,7.5,30.00,WNW,286,4.0,7.8,15,0.00,,,-99.99,FreeWX 2.04,2013-04-03 19:23:00,
2013-04-03 13:33:00,52.2,7.3,30.00,NW,309,5.0,10.5,16,0.00,,,-99.99,FreeWX 2.04,2013-04-03 19:33:00,
2013-04-03 13:43:00,53.1,6.6,30.00,NW,321,6.0,11.0,15,0.00,,,-99.99,FreeWX 2.04,2013-04-03 19:43:00,
2013-04-03 13:53:00,53.4,7.0,30.00,NW,315,6.0,11.0,15,0.00,,,-99.99,FreeWX 2.04,2013-04-03 19:53:00,
2013-04-03 14:03:00,54.5,7.9,30.00,WNW,301,6.0,11.0,15,0.00,,,-99.99,FreeWX 2.04,2013-04-03 20:03:00,
2013-04-03 14:13:00,53.4,7.0,30.00,WNW,290,6.0,11.0,15,0.00,,,-99.99,FreeWX 2.04,2013-04-03 20:13:00,
2013-04-03 14:23:00,56.1,9.1,30.00,West,268,4.0,7.8,15,0.00,,,-99.99,FreeWX 2.04,2013-04-03 20:23:00,
2013-04-03 14:33:00,55.8,8.8,30.00,West,269,5.0,11.2,15,0.00,,,-99.99,FreeWX 2.04,2013-04-03 20:33:00,
2013-04-03 14:43:00,56.8,8.2,30.00,WNW,284,3.0,8.3,14,0.00,,,-99.99,FreeWX 2.04,2013-04-03 20:43:00,
2013-04-03 14:53:00,54.9,3.2,30.00,West,263,4.0,10.1,12,0.00,,,-99.99,FreeWX 2.04,2013-04-03 20:53:00,
2013-04-03 15:03:00,56.3,7.7,30.00,WNW,286,4.0,7.8,14,0.00,,,-99.99,FreeWX 2.04,2013-04-03 21:03:00,
2013-04-03 15:13:00,55.6,8.8,30.00,WNW,289,6.0,12.5,15,0.00,,,-99.99,FreeWX 2.04,2013-04-03 21:13:00,
2013-04-03 15:23:00,56.3,4.5,30.00,West,260,5.0,10.1,12,0.00,,,-99.99,FreeWX 2.04,2013-04-03 21:23:00,
2013-04-03 15:33:00,56.3,7.7,30.00,WNW,292,4.0,9.6,14,0.00,,,-99.99,FreeWX 2.04,2013-04-03 21:33:00,
2013-04-03 15:43:00,54.1,4.5,29.97,NW,314,7.0,12.5,13,0.00,,,-99.99,FreeWX 2.04,2013-04-03 21:43:00,
2013-04-03 15:53:00,53.8,7.2,29.97,NW,326,4.0,8.3,15,0.00,,,-99.99,FreeWX 2.04,2013-04-03 21:53:00,
2013-04-03 16:03:00,53.1,6.6,29.97,NW,320,7.0,12.5,15,0.00,,,-99.99,FreeWX 2.04,2013-04-03 22:03:00,
2013-04-03 16:13:00,53.6,7.2,29.97,NNW,333,6.0,8.7,15,0.00,,,-99.99,FreeWX 2.04,2013-04-03 22:13:00,
2013-04-03 16:23:00,53.2,6.8,29.97,NW,313,8.0,13.0,15,0.00,,,-99.99,FreeWX 2.04,2013-04-03 22:23:00,
2013-04-03 16:33:00,53.2,6.8,29.97,NNW,336,8.0,13.4,15,0.00,,,-99.99,FreeWX 2.04,2013-04-03 22:33:00,
2013-04-03 16:43:00,52.9,6.4,29.97,North,358,8.0,11.6,15,0.00,,,-99.99,FreeWX 2.04,2013-04-03 22:43:00,
2013-04-03 16:53:00,55.0,8.2,29.97,North,359,7.0,11.6,15,0.00,,,-99.99,FreeWX 2.04,2013-04-03 22:53:00,
2013-04-03 17:03:00,55.0,8.2,29.97,NNW,342,7.0,10.1,15,0.00,,,-99.99,FreeWX 2.04,2013-04-03 23:03:00,
2013-04-03 17:34:00,54.0,4.3,29.97,West,269,4.0,6.9,13,0.00,,,-99.99,FreeWX 2.04,2013-04-03 23:34:00,
2013-04-03 17:44:00,52.3,3.0,29.97,NW,308,6.0,12.1,13,0.00,,,-99.99,FreeWX 2.04,2013-04-03 23:44:00,
2013-04-03 18:04:00,52.9,3.4,29.97,NNW,342,6.0,9.2,13,0.00,,,-99.99,FreeWX 2.04,2013-04-04 00:04:00,
2013-04-03 18:14:00,52.2,7.3,29.97,NNW,337,6.0,10.5,16,0.00,,,-99.99,FreeWX 2.04,2013-04-04 00:14:00,
2013-04-03 18:24:00,52.3,3.0,29.97,NNW,330,6.0,11.6,13,0.00,,,-99.99,FreeWX 2.04,2013-04-04 00:24:00,
2013-04-03 18:34:00,52.2,7.3,29.97,NNW,334,6.0,9.2,16,0.00,,,-99.99,FreeWX 2.04,2013-04-04 00:34:00,
2013-04-03 18:44:00,51.1,6.4,29.97,NNW,334,5.0,7.8,16,0.00,,,-99.99,FreeWX 2.04,2013-04-04 00:44:00,
2013-04-03 18:54:00,50.9,6.3,30.00,NNW,333,6.0,9.6,16,0.00,,,-99.99,FreeWX 2.04,2013-04-04 00:54:00,
2013-04-03 19:05:00,50.7,6.3,30.00,NW,314,6.0,8.3,16,0.00,,,-99.99,FreeWX 2.04,2013-04-04 01:05:00,
2013-04-03 19:15:00,49.3,5.0,30.00,WNW,300,6.0,11.2,16,0.00,,,-99.99,FreeWX 2.04,2013-04-04 01:15:00,
2013-04-03 19:25:00,48.6,8.2,30.00,NNW,335,5.0,8.7,19,0.00,,,-99.99,FreeWX 2.04,2013-04-04 01:25:00,
2013-04-03 19:35:00,47.3,10.4,30.00,North,-999,0.0,3.6,22,0.00,,,-99.99,FreeWX 2.04,2013-04-04 01:35:00,
2013-04-03 19:45:00,46.8,14.5,30.00,North,-999,0.0,3.1,27,0.00,,,-99.99,FreeWX 2.04,2013-04-04 01:45:00,
2013-04-03 19:55:00,48.2,10.0,30.00,NNW,332,1.0,4.9,21,0.00,,,-99.99,FreeWX 2.04,2013-04-04 01:55:00,
2013-04-03 20:05:00,45.9,11.1,30.00,North,-999,0.0,0.0,24,0.00,,,-99.99,FreeWX 2.04,2013-04-04 02:05:00,
2013-04-03 20:15:00,43.9,12.9,30.00,ESE,109,1.0,5.8,28,0.00,,,-99.99,FreeWX 2.04,2013-04-04 02:15:00,
2013-04-03 20:25:00,42.8,12.0,30.00,ESE,106,2.0,5.4,28,0.00,,,-99.99,FreeWX 2.04,2013-04-04 02:25:00,
2013-04-03 20:35:00,43.2,12.4,30.00,ESE,107,4.0,7.8,28,0.00,,,-99.99,FreeWX 2.04,2013-04-04 02:35:00,
2013-04-03 20:45:00,44.1,12.2,30.00,ESE,117,6.0,9.6,27,0.00,,,-99.99,FreeWX 2.04,2013-04-04 02:45:00,
2013-04-03 20:55:00,43.0,12.2,30.00,ESE,103,6.0,9.6,28,0.00,,,-99.99,FreeWX 2.04,2013-04-04 02:55:00,
2013-04-03 21:05:00,42.3,11.5,30.00,East,96,5.0,9.6,28,0.00,,,-99.99,FreeWX 2.04,2013-04-04 03:05:00,
2013-04-03 21:15:00,42.8,12.0,30.00,ESE,108,6.0,10.5,28,0.00,,,-99.99,FreeWX 2.04,2013-04-04 03:15:00,
2013-04-03 21:25:00,42.1,12.2,30.00,ESE,109,6.0,11.0,29,0.00,,,-99.99,FreeWX 2.04,2013-04-04 03:25:00,
2013-04-03 21:35:00,42.1,12.2,30.00,ESE,114,6.0,10.1,29,0.00,,,-99.99,FreeWX 2.04,2013-04-04 03:35:00,
2013-04-03 21:45:00,41.7,12.6,30.00,East,101,6.0,11.2,30,0.00,,,-99.99,FreeWX 2.04,2013-04-04 03:45:00,
2013-04-03 21:55:00,41.5,12.4,30.00,ESE,102,6.0,9.6,30,0.00,,,-99.99,FreeWX 2.04,2013-04-04 03:55:00,
2013-04-03 22:05:00,41.0,12.7,30.00,ESE,103,6.0,9.2,31,0.00,,,-99.99,FreeWX 2.04,2013-04-04 04:05:00,
2013-04-03 22:15:00,40.8,13.3,30.00,ESE,106,5.0,10.1,32,0.00,,,-99.99,FreeWX 2.04,2013-04-04 04:15:00,
2013-04-03 22:25:00,41.0,13.5,30.00,ESE,106,6.0,9.2,32,0.00,,,-99.99,FreeWX 2.04,2013-04-04 04:25:00,
2013-04-03 22:35:00,40.5,15.1,30.00,ESE,105,5.0,9.6,35,0.00,,,-99.99,FreeWX 2.04,2013-04-04 04:35:00,
2013-04-03 22:45:00,40.5,16.9,30.00,ESE,104,6.0,9.6,38,0.00,,,-99.99,FreeWX 2.04,2013-04-04 04:45:00,
2013-04-03 22:55:00,40.5,16.9,30.00,ESE,111,5.0,8.7,38,0.00,,,-99.99,FreeWX 2.04,2013-04-04 04:55:00,
2013-04-03 23:05:00,40.3,16.7,30.00,East,95,5.0,9.2,38,0.00,,,-99.99,FreeWX 2.04,2013-04-04 05:05:00,
2013-04-03 23:15:00,41.0,18.0,30.00,East,97,6.0,11.0,39,0.00,,,-99.99,FreeWX 2.04,2013-04-04 05:15:00,
2013-04-03 23:25:00,41.4,18.3,30.00,ESE,103,6.0,10.5,39,0.00,,,-99.99,FreeWX 2.04,2013-04-04 05:25:00,
2013-04-03 23:35:00,41.4,18.9,30.00,ESE,114,5.0,9.6,40,0.00,,,-99.99,FreeWX 2.04,2013-04-04 05:35:00,
2013-04-03 23:45:00,41.7,18.7,30.00,ESE,113,6.0,10.1,39,0.00,,,-99.99,FreeWX 2.04,2013-04-04 05:45:00,
2013-04-03 23:55:00,41.5,17.8,30.00,ESE,110,6.0,12.1,38,0.00,,,-99.99,FreeWX 2.04,2013-04-04 05:55:00,